date,batt_volt,AirTemp_C,Solar_kW,RH,Manual_BP,StationID,WS_ms,PTemp,WS_15min_max,Prog_Sig,Solar_Raw,Bar_mbar,Solar_MJ,Max_WS_2min,Pressure_Raw,Rain_mm,WD_15min_ave,Max_AirTemp_1min,WindDir,WS_15min_med,WS_15min_ave,Elevation_Correction
2017-05-01T00:11:44Z,13.10427,5.14571,0.0,77.07308,0,1156,0.4704,8.279926,,43690,0.0,1024.297,0.0,0.431,1022.496,0.0,,5.248,221.9677,,,1.80078
2017-05-01T00:26:47Z,13.11054,4.812599,0.0,79.69321,0,1156,0.0,7.993008,,43690,0.0,1024.297,0.0,0.0,1022.496,0.0,,4.914,252.899,,,1.80078
2017-05-01T00:41:49Z,13.11136,4.745743,0.0,80.37285,0,1156,0.3528,7.816784,,43690,0.0,1024.297,0.0,0.49,1022.496,0.0,,4.814,275.6243,,,1.80078
2017-05-01T00:56:46Z,13.10586,4.576271,0.0,79.8983,0,1156,0.9015999,7.706082,,43690,0.0,1024.297,0.0,1.333,1022.496,0.0,,4.644,332.5207,,,1.80078
2017-05-01T01:11:49Z,13.1169,4.067795,0.0,81.62712,0,1156,0.6664,7.421414,,43690,0.0,1023.74,0.0,0.9210001,1021.939,0.0,,4.237,117.9322,,,1.80078
2017-05-01T01:26:47Z,13.13346,3.864406,0.0,81.79661,0,1156,0.7056,7.028302,,43690,0.0,1023.74,0.0,0.7640001,1021.939,0.0,,4.034,315.8658,,,1.80078
2017-05-01T01:41:49Z,13.1445,3.864406,0.0,81.93221,0,1156,1.1956,6.612598,,43690,0.0,1023.74,0.0,1.254,1021.939,0.0,,3.864,296.5875,,,1.80078
2017-05-01T01:56:51Z,13.15554,4.0,0.0,81.66102,0,1156,0.7448,6.264675,,43690,0.0,1023.74,0.0,1.196,1021.939,0.0,,4.0,284.7461,,,1.80078
2017-05-01T02:11:53Z,13.1445,4.305084,0.0,80.54238,0,1156,1.3328,6.176563,,43690,0.0,1024.553,0.0,1.294,1022.753,0.0,,4.339,281.1119,,,1.80078
2017-05-01T02:26:50Z,13.12794,4.64407,0.0,78.23729,0,1156,0.8231999,6.330196,,43690,0.0,1024.553,0.0,1.156,1022.753,0.0,,4.712,318.6095,,,1.80078
2017-05-01T02:41:52Z,13.12242,4.677967,0.0,77.9661,0,1156,1.4896,6.569676,,43690,0.0,1024.553,0.0,1.862,1022.753,0.0,,4.814,289.9207,,,1.80078
2017-05-01T02:56:54Z,13.11138,4.610168,0.0,79.05085,0,1156,2.1168,6.766231,,43690,0.0,1024.553,0.0,1.646,1022.753,0.0,,4.712,299.7163,,,1.80078
2017-05-01T03:11:50Z,13.11138,4.81356,0.0,78.94915,0,1156,0.9799999,6.917598,,43690,0.0,1023.903,0.0,1.548,1022.102,0.0,,4.814,289.3912,,,1.80078
2017-05-01T03:26:53Z,13.10586,4.64407,0.0,80.30509,0,1156,1.0192,7.048642,,43690,0.0,1023.903,0.0,1.137,1022.102,0.0,,4.712,292.857,,,1.80078
2017-05-01T03:41:54Z,13.11138,4.474575,0.0,82.1695,0,1156,0.0,7.136746,,43690,0.0,1023.903,0.0,0.255,1022.102,0.0,,4.542,303.5431,,,1.80078
2017-05-01T03:56:56Z,13.11138,4.508476,0.0,81.32204,0,1156,0.1568,7.202266,,43690,0.0,1023.903,0.0,0.176,1022.102,0.0,,4.61,89.05085,,,1.80078
2017-05-01T04:11:53Z,13.11138,4.067795,0.0,83.8305,0,1156,0.2156,7.24519,,43690,0.0,1024.309,0.0,0.804,1022.509,0.0,,4.068,91.89085,,,1.80078
2017-05-01T04:26:55Z,13.10034,4.033897,0.0,84.50848,0,1156,0.2744,7.290378,,43690,0.0,1024.309,0.0,0.294,1022.509,0.0,,4.136,304.6261,,,1.80078
2017-05-01T04:41:57Z,13.10034,3.661018,0.0,84.77966,0,1156,0.7644,7.310711,,43690,0.0,1024.309,0.0,1.627,1022.509,0.0,,3.831,115.718,,,1.80078
2017-05-01T04:56:53Z,13.10034,3.966103,0.0,84.54238,0,1156,1.0388,7.310711,,43690,0.0,1024.309,0.0,0.9410001,1022.509,0.0,,4.0,98.7261,,,1.80078
2017-05-01T05:11:54Z,13.10586,3.728813,0.0,85.66102,0,1156,2.0776,7.24519,,43690,0.0,1023.089,0.0,2.176,1021.288,0.0,,3.763,106.3556,,,1.80078
2017-05-01T05:26:56Z,13.10034,4.033897,0.0,83.25423,0,1156,1.9012,7.202266,,43690,0.0,1023.089,0.0,2.391,1021.288,0.0,,4.068,115.1885,,,1.80078
2017-05-01T05:41:58Z,13.10034,4.23729,0.0,80.30509,0,1156,2.3912,7.24519,,43690,0.0,1023.089,0.0,2.587,1021.288,0.0,,4.441,97.54678,,,1.80078
2017-05-01T05:57:00Z,13.10586,4.338982,0.0,82.33898,0,1156,2.5088,7.267788,,43690,0.0,1023.089,0.0,2.607,1021.288,0.0,,4.339,105.0078,,,1.80078
2017-05-01T06:12:01Z,13.10586,4.372883,0.0,82.23729,0,1156,2.9008,7.310711,,43690,0.0,1022.764,0.0,4.096,1020.963,0.0,,4.373,108.3773,,,1.80078
2017-05-01T06:27:01Z,13.10586,4.40678,0.0,83.38983,0,1156,3.43,7.37849,,43690,0.0,1022.764,0.0,3.469,1020.963,0.0,,4.508,96.65627,,,1.80078
2017-05-01T06:42:02Z,13.10034,4.474575,0.0,84.23729,0,1156,2.9988,7.444004,,43690,0.0,1022.764,0.0,3.724,1020.963,0.0,,4.542,85.2722,,,1.80078
2017-05-01T06:56:58Z,13.10034,4.508476,0.0,85.11865,0,1156,2.8616,7.486934,,43690,0.0,1022.764,0.0,4.096,1020.963,0.0,,4.644,105.8502,,,1.80078
2017-05-01T07:11:59Z,13.10034,4.64407,0.0,82.64406,0,1156,3.43,7.532116,,43690,0.0,1023.252,0.0,4.606,1021.451,0.0,,4.576,100.122,,,1.80078
2017-05-01T07:27:00Z,13.09482,4.576271,0.0,79.01695,0,1156,3.6064,7.597637,,43690,0.0,1023.252,0.0,3.881,1021.451,0.0,,4.576,103.8044,,,1.80078
2017-05-01T07:42:00Z,13.10034,4.474575,0.0,77.86441,0,1156,2.7636,7.597637,,43690,0.0,1023.252,0.0,3.959,1021.451,0.0,,4.542,109.677,,,1.80078
2017-05-01T07:57:01Z,13.10034,4.40678,0.0,74.98305,0,1156,3.2928,7.552448,,43690,0.0,1023.252,0.0,4.684,1021.451,0.0,,4.475,107.1017,,,1.80078
2017-05-01T08:12:03Z,13.11138,4.372883,0.0,74.0339,0,1156,2.2344,7.509526,,43690,0.0,1023.17,0.0,3.371,1021.369,0.0,,4.542,105.9464,,,1.80078
2017-05-01T08:27:03Z,13.11138,4.40678,0.0,74.20339,0,1156,2.4304,7.444004,,43690,0.0,1023.17,0.0,3.293,1021.369,0.0,,4.508,89.72474,,,1.80078
2017-05-01T08:42:05Z,13.1169,4.508476,0.0,74.67796,0,1156,3.2144,7.37849,,43690,0.0,1023.17,0.0,2.96,1021.369,0.0,,4.542,107.8719,,,1.80078
2017-05-01T08:57:06Z,13.1169,4.474575,0.0004822569,74.30509,0,1156,1.96,7.355892,,43690,0.03375798,1023.17,2.411285e-06,3.097,1021.369,0.0,,4.508,72.78102,,,1.80078
2017-05-01T09:12:03Z,13.10586,4.40678,0.001929038,73.05085,0,1156,2.5872,7.37849,,43690,0.1350327,1023.414,9.645191e-06,4.449,1021.614,0.0,,4.542,114.8515,,,1.80078
2017-05-01T09:27:04Z,13.10586,4.542374,0.007233854,71.25423,0,1156,3.9788,7.444004,,43690,0.5063698,1023.414,3.616927e-05,5.037,1021.614,0.0,,4.576,94.99559,,,1.80078
2017-05-01T09:42:06Z,13.11138,4.508476,0.01350319,71.08474,0,1156,2.5284,7.464336,,43690,0.9452236,1023.414,6.751597e-05,3.704,1021.614,0.0,,4.576,108.257,,,1.80078
2017-05-01T09:57:08Z,13.10586,4.576271,0.02363059,69.66102,0,1156,5.3312,7.486934,,43690,1.654141,1023.414,0.0001181529,5.174,1021.614,0.0,,4.644,101.7105,,,1.80078
2017-05-01T10:12:10Z,13.10586,4.610168,0.02652413,71.18644,0,1156,4.9196,7.552448,,43690,1.856689,1023.252,0.0001326207,5.802,1021.451,0.0,,4.644,116.7529,,,1.80078
2017-05-01T10:27:07Z,13.11138,4.576271,0.02941767,72.37288,0,1156,3.822,7.597637,,43690,2.059237,1023.252,0.0001470884,3.92,1021.451,0.0,,4.644,97.25797,,,1.80078
2017-05-01T10:42:10Z,13.10034,4.508476,0.03616927,71.72882,0,1156,4.3708,7.64056,,43690,2.531849,1023.252,0.0001808463,4.665,1021.451,0.0,,4.712,102.9139,,,1.80078
2017-05-01T10:57:08Z,13.10034,4.779659,0.05642406,70.06779,0,1156,2.4304,7.751262,,43690,3.949684,1023.252,0.0002821203,3.744,1021.451,0.0,,4.847,106.1871,,,1.80078
2017-05-01T11:12:11Z,13.10034,5.016949,0.05738857,67.38983,0,1156,3.4692,7.839374,,43690,4.0172,1023.414,0.0002869428,5.214,1021.614,0.0,,5.051,87.48644,,,1.80078
2017-05-01T11:27:09Z,13.10034,5.18644,0.08535541,67.35594,0,1156,3.626,7.950077,,43690,5.974878,1023.414,0.000426777,4.861,1021.614,0.0,,5.22,98.14847,,,1.80078
2017-05-01T11:42:12Z,13.10034,5.355839,0.09403104,65.42359,0,1156,4.312,8.126301,,43690,6.582173,1023.414,0.0004701552,4.959,1021.614,0.0,,5.39,92.32386,,,1.80078
2017-05-01T11:57:11Z,13.09463,5.38839,0.08823994,67.45548,0,1156,4.3708,8.081112,,43690,6.176796,1023.414,0.0004411996,4.684,1021.614,0.0,,5.388,110.9009,,,1.80078
2017-05-01T12:12:15Z,13.10019,5.152264,0.07473788,68.81314,0,1156,3.8808,8.038189,,43690,5.231651,1023.487,0.0003736894,4.9,1021.687,0.0,,5.152,131.5538,,,1.80078
2017-05-01T12:27:13Z,13.10032,5.084038,0.1094568,70.98194,0,1156,2.9596,8.015598,,43690,7.661977,1023.487,0.000547284,4.175,1021.687,0.0,,5.186,117.786,,,1.80078
2017-05-01T12:42:11Z,13.10586,5.016331,0.121999,73.15154,0,1156,2.6264,7.904896,,43690,8.539927,1023.487,0.0006099948,4.684,1021.687,0.0,,5.084,115.235,,,1.80078
2017-05-01T12:57:15Z,13.1169,4.745754,0.1080227,78.33897,0,1156,2.2736,7.794194,,43690,7.561592,1023.487,0.0005401136,3.548,1021.687,0.0,,4.915,130.64,,,1.80078
2017-05-01T13:12:14Z,13.1169,4.474575,0.1191171,79.59322,0,1156,2.8224,7.64056,,43690,8.338198,1023.333,0.0005955856,3.842,1021.532,0.0,,4.475,97.20983,,,1.80078
2017-05-01T13:27:18Z,13.12242,4.271187,0.125869,80.13559,0,1156,3.5476,7.464336,,43690,8.81083,1023.333,0.000629345,4.802,1021.532,0.0,,4.339,102.7695,,,1.80078
2017-05-01T13:42:17Z,13.1169,4.23729,0.142748,81.05085,0,1156,4.8608,7.355892,,43690,9.992359,1023.333,0.0007137399,5.488,1021.532,0.0,,4.339,105.7298,,,1.80078
2017-05-01T13:57:16Z,13.1169,4.067795,0.1509487,82.1017,0,1156,5.5272,7.310711,,43690,10.56641,1023.333,0.0007547436,6.037,1021.532,0.0,,4.136,104.2617,,,1.80078
2017-05-01T14:12:18Z,13.11138,4.101696,0.1480555,85.28814,0,1156,3.6456,7.267788,,43690,10.36388,1023.984,0.0007402774,4.155,1022.183,0.0,,4.203,117.1861,,,1.80078
2017-05-01T14:27:19Z,13.11138,4.135594,0.1663791,86.50848,0,1156,3.5868,7.267788,,43690,11.64654,1023.984,0.0008318957,4.018,1022.183,0.0,,4.203,124.3342,,,1.80078
2017-05-01T14:42:19Z,13.10586,4.474575,0.3293917,86.88135,0,1156,3.4692,7.355892,,43690,23.05742,1023.984,0.001646959,4.077,1022.183,0.0,,4.475,119.3281,,,1.80078
2017-05-01T14:57:19Z,13.10034,4.81356,0.2647592,88.0339,0,1156,3.9984,7.685749,,43690,18.53315,1023.984,0.001323796,4.41,1022.183,0.0,,4.949,98.00406,,,1.80078
2017-05-01T15:12:21Z,13.0893,4.64407,0.2647464,88.57627,0,1156,4.9196,7.950077,,43690,18.53225,1023.577,0.001323732,4.332,1021.776,0.0,,4.712,120.6037,,,1.80078
2017-05-01T15:27:18Z,13.0893,4.7444,0.3081412,88.84475,0,1156,2.6852,8.126301,,43690,21.56988,1023.577,0.001540706,4.802,1021.776,0.0,,4.881,108.2055,,,1.80078
2017-05-01T15:42:22Z,13.07748,5.150295,0.3592229,89.41928,0,1156,3.8416,8.435818,,43690,25.14561,1023.577,0.001796115,4.704,1021.776,0.0,,5.353,116.6508,,,1.80078
2017-05-01T15:57:22Z,13.05412,5.755886,0.6292392,89.98658,0,1156,3.7632,8.96674,,43690,44.04674,1023.577,0.003146196,4.586,1021.776,0.0,,5.688,99.33704,,,1.80078
2017-05-01T16:12:23Z,13.04657,5.91814,0.4999725,88.9897,0,1156,3.234,9.524777,,43690,34.99807,1022.762,0.002499862,4.802,1020.961,0.0,,6.054,81.56484,,,1.80078
2017-05-01T16:27:24Z,13.04072,5.882805,0.3630337,88.10582,0,1156,2.8812,9.883999,,43690,25.41236,1022.762,0.001815169,4.234,1020.961,0.0,,6.052,104.5152,,,1.80078
2017-05-01T16:42:23Z,13.04624,5.713337,0.2800982,88.13965,0,1156,4.2336,9.861408,,43690,19.60687,1022.762,0.001400491,4.469,1020.961,0.0,,5.713,108.1,,,1.80078
2017-05-01T16:57:23Z,13.05175,5.306694,0.2579233,88.24131,0,1156,4.214,9.705517,,43690,18.05463,1022.762,0.001289617,5.096,1020.961,0.0,,5.544,96.16642,,,1.80078
2017-05-01T17:12:23Z,13.04624,5.476128,0.2733498,88.95294,0,1156,4.1356,9.592556,,43690,19.13449,1022.587,0.001366749,4.43,1020.786,0.0,,5.544,98.04306,,,1.80078
2017-05-01T17:27:27Z,13.05727,5.34058,0.2029619,89.19014,0,1156,3.1164,9.459255,,43690,14.20733,1022.587,0.00101481,3.724,1020.786,0.0,,5.476,90.31991,,,1.80078
2017-05-01T17:42:25Z,13.05727,5.442242,0.2926311,89.46123,0,1156,3.8416,9.346294,,43690,20.48418,1022.587,0.001463156,4.116,1020.786,0.0,,5.578,98.1393,,,1.80078
2017-05-01T17:57:24Z,13.05175,5.205032,0.1624677,90.24063,0,1156,2.9792,9.301113,,43690,11.37274,1022.587,0.0008123386,5.076,1020.786,0.0,,5.307,95.68522,,,1.80078
2017-05-01T18:12:26Z,13.06279,5.069485,0.1701822,90.91837,0,1156,3.136,9.167812,,43690,11.91275,1021.693,0.000850911,4.332,1019.892,0.0,,5.171,138.7039,,,1.80078
2017-05-01T18:27:26Z,13.06866,5.036846,0.191402,91.56476,0,1156,2.744,8.96674,,43690,13.39814,1021.693,0.0009570098,3.234,1019.892,0.0,,5.07,94.31643,,,1.80078
2017-05-01T18:42:28Z,13.07529,4.80267,0.2068516,91.50318,0,1156,3.9788,8.833446,,43690,14.47961,1021.693,0.001034258,4.743,1019.892,0.0,,4.871,115.0642,,,1.80078
2017-05-01T18:57:26Z,13.07585,4.670136,0.1576714,91.64495,0,1156,1.96,8.677555,,43690,11.03699,1021.693,0.0007883567,3.802,1019.892,0.1,,4.806,126.3097,,,1.80078
2017-05-01T19:12:26Z,13.08155,4.635895,0.1335626,91.91538,0,1156,2.6852,8.52393,,43690,9.349379,1021.86,0.0006678128,3.959,1020.059,0.0,,4.704,96.83108,,,1.80078
2017-05-01T19:27:26Z,13.0926,4.636364,0.1133112,92.08581,0,1156,3.626,8.390629,,43690,7.931784,1021.86,0.000566556,4.018,1020.059,0.0,,4.636,98.99782,,,1.80078
2017-05-01T19:42:25Z,13.09361,4.672653,0.1364556,92.12464,0,1156,2.058,8.257336,,43690,9.551894,1021.86,0.0006822781,4.469,1020.059,0.0,,4.74,110.8672,,,1.80078
2017-05-01T19:57:29Z,13.10528,4.574757,0.118133,91.86129,0,1156,3.3124,8.146633,,43690,8.269307,1021.86,0.0005906648,4.292,1020.059,0.0,,4.642,125.5093,,,1.80078
2017-05-01T20:12:28Z,13.11125,4.440434,0.06027479,91.7961,0,1156,2.1756,7.97041,,43690,4.219236,1020.782,0.0003013739,3.665,1018.981,0.0,,4.61,103.6113,,,1.80078
2017-05-01T20:27:32Z,13.1169,4.40678,0.0651012,91.76271,0,1156,4.0376,7.816784,,43690,4.557084,1020.782,0.000325506,4.469,1018.981,0.0,,4.508,112.517,,,1.80078
2017-05-01T20:42:31Z,13.11138,4.440678,0.07764314,91.49152,0,1156,2.94,7.685749,,43690,5.43502,1020.782,0.0003882157,4.077,1018.981,0.0,,4.508,118.5339,,,1.80078
2017-05-01T20:57:31Z,13.1169,4.40678,0.05931757,91.32204,0,1156,3.3124,7.552448,,43690,4.15223,1020.782,0.0002965879,4.253,1018.981,0.1,,4.475,122.1441,,,1.80078
2017-05-01T21:12:30Z,13.10586,4.305084,0.05256598,90.88135,0,1156,2.6852,7.486934,,43690,3.679618,1020.974,0.0002628299,4.802,1019.173,0.0,,4.339,100.82,,,1.80078
2017-05-01T21:27:34Z,13.10586,4.271187,0.05449501,91.38983,0,1156,3.2928,7.421414,,43690,3.81465,1020.974,0.000272475,4.253,1019.173,0.0,,4.339,112.902,,,1.80078
2017-05-01T21:42:33Z,13.10586,4.23729,0.04099182,91.59322,0,1156,4.6256,7.398822,,43690,2.869427,1020.974,0.0002049591,4.763,1019.173,0.0,,4.271,97.01729,,,1.80078
2017-05-01T21:57:32Z,13.10586,4.23729,0.02941766,91.8983,0,1156,3.3124,7.355892,,43690,2.059236,1020.974,0.0001470883,3.802,1019.173,0.0,,4.271,111.3376,,,1.80078
2017-05-01T22:12:37Z,13.11138,4.169491,0.03038217,92.20339,0,1156,4.2728,7.290378,,43690,2.126752,1020.486,0.0001519109,5.312,1018.685,0.0,,4.237,105.0559,,,1.80078
2017-05-01T22:27:35Z,13.1169,4.067795,0.01446827,92.44068,0,1156,3.2928,7.202266,,43690,1.012779,1020.486,7.234134e-05,4.43,1018.685,0.0,,4.136,85.46474,,,1.80078
2017-05-01T22:42:39Z,13.12794,4.067795,0.002893743,92.88135,0,1156,2.9988,7.136746,,43690,0.202562,1020.486,1.446872e-05,4.449,1018.685,0.0,,4.102,133.6003,,,1.80078
2017-05-01T22:57:37Z,13.13898,4.033897,0.00627016,93.11865,0,1156,3.234,7.028302,,43690,0.4389112,1020.486,3.13508e-05,4.606,1018.685,0.0,,4.136,156.4888,,,1.80078
2017-05-01T23:12:36Z,13.15554,3.898304,0.0009646419,92.74577,0,1156,3.5672,6.852085,,43690,0.06752494,1019.591,4.82321e-06,3.998,1017.79,0.0,,3.966,105.417,,,1.80078
2017-05-01T23:27:40Z,13.16107,3.76271,0.0,92.71187,0,1156,3.9004,6.70071,,43690,0.0,1019.591,0.0,4.9,1017.79,0.0,,3.797,69.86882,,,1.80078
2017-05-01T23:42:38Z,13.16107,3.864406,0.0,92.81356,0,1156,3.2928,6.569676,,43690,0.0,1019.591,0.0,4.782,1017.79,0.0,,3.864,119.4485,,,1.80078
2017-05-01T23:57:42Z,13.15554,3.559322,0.0,92.81356,0,1156,2.9792,6.481564,,43690,0.0,1019.591,0.0,5.41,1017.79,0.0,,3.695,93.38305,,,1.80078
2017-05-02T00:12:40Z,13.15002,3.627117,0.0,92.94915,0,1156,3.136,6.461231,,43690,0.0,1018.208,0.0,4.371,1016.407,0,,3.729,118.582,,,1.80078
2017-05-02T00:27:38Z,13.1445,3.559322,0.0,92.88135,0,1156,3.6848,6.43864,,43690,0.0,1018.208,0.0,4.959,1016.407,0,,3.627,110.4471,,,1.80078
2017-05-02T00:42:42Z,13.13346,3.525425,0.0,92.77966,0,1156,4.0768,6.461231,,43690,0.0,1018.208,0.0,5.762,1016.407,0,,3.559,104.719,,,1.80078
2017-05-02T00:57:39Z,13.12794,3.423729,0.0,92.54238,0,1156,4.5668,6.461231,,43690,0.0,1018.208,0.0,5.723,1016.407,0,,3.525,101.4217,,,1.80078
2017-05-02T01:12:43Z,13.13346,3.423729,0.0,92.50848,0,1156,1.8816,6.43864,,43690,0.0,1018.452,0.0,5.586,1016.651,0,,3.458,73.35864,,,1.80078
2017-05-02T01:27:40Z,13.13898,3.220341,0.0,92.50848,0,1156,4.6648,6.373119,,43690,0.0,1018.452,0.0,5.664,1016.651,0,,3.424,146.1156,,,1.80078
2017-05-02T01:42:42Z,13.13898,3.288136,0.0,92.54238,0,1156,2.7048,6.307606,,43690,0.0,1018.452,0.0,5.86,1016.651,0,,3.322,123.0827,,,1.80078
2017-05-02T01:57:44Z,13.13898,3.355934,0.0,92.47458,0,1156,2.6068,6.264675,,43690,0.0,1018.452,0.0,4.508,1016.651,0,,3.458,135.622,,,1.80078
2017-05-02T02:12:46Z,13.13346,3.355934,0.0,92.61017,0,1156,2.6264,6.287274,,43690,0.0,1017.231,0.0,4.136,1015.431,0,,3.458,106.8851,,,1.80078
2017-05-02T02:27:42Z,13.13346,3.322033,0.0,92.77966,0,1156,3.3124,6.287274,,43690,0.0,1017.231,0.0,4.665,1015.431,0,,3.356,116.3437,,,1.80078
2017-05-02T02:42:44Z,13.13346,3.254238,0.0,93.08474,0,1156,4.6256,6.287274,,43690,0.0,1017.231,0.0,4.469,1015.431,0,,3.356,135.8386,,,1.80078
2017-05-02T02:57:46Z,13.1445,3.288136,0.0,93.25423,0,1156,2.8812,6.264675,,43690,0.0,1017.231,0.0,2.999,1015.431,0,,3.322,117.7397,,,1.80078
2017-05-02T03:12:43Z,13.15002,3.220341,0.0,93.62712,0,1156,4.018,6.199162,,43690,0.0,1016.987,0.0,7.624001,1015.186,0,,3.356,130.4956,,,1.80078
2017-05-02T03:27:46Z,13.15554,3.220448,0.0,93.86465,0,1156,5.3508,6.156231,,43690,0.0,1016.987,0.0,6.703,1015.186,0,,3.288,131.8437,,,1.80078
2017-05-02T03:42:48Z,13.15002,3.288155,0.0,94.06784,0,1156,4.6648,6.13364,,43690,0.0,1016.987,0.0,4.998,1015.186,0,,3.356,110.6878,,,1.80078
2017-05-02T03:57:46Z,13.1445,3.288174,0.0,94.20347,0,1156,3.038,6.176563,,43690,0.0,1016.987,0.0,4.096,1015.186,0,,3.39,128.9072,,,1.80078
2017-05-02T04:12:49Z,13.13898,3.491543,0.0,94.27122,0,1156,1.5484,6.242084,,43690,0.0,1015.605,0.0,3.783,1013.804,0,,3.525,142.2407,,,1.80078
2017-05-02T04:27:45Z,13.13898,3.423748,0.0,94.44072,0,1156,3.8808,6.330196,,43690,0.0,1015.605,0.0,4.175,1013.804,0,,3.559,124.8638,,,1.80078
2017-05-02T04:42:48Z,13.12794,3.627136,0.0,94.64411,0,1156,3.1948,6.461231,,43690,0.0,1015.605,0.0,4.057,1013.804,0,,3.661,98.62986,,,1.80078
2017-05-02T04:57:50Z,13.13346,3.694935,0.0,94.8136,0,1156,3.6848,6.569676,,43690,0.0,1015.605,0.0,5.037,1013.804,0,,3.797,139.0156,,,1.80078
2017-05-02T05:12:47Z,13.1445,3.864426,0.0,95.01699,0,1156,1.372,6.590008,,43690,0.0,1014.628,0.0,2.528,1012.827,0,,3.932,135.4295,,,1.80078
2017-05-02T05:27:50Z,13.13898,3.830528,0.0,95.01699,0,1156,3.8416,6.635197,,43690,0.0,1014.628,0.0,4.822,1012.827,0,,4.0,111.0007,,,1.80078
2017-05-02T05:42:47Z,13.13346,4.033916,0.0,94.9153,0,1156,3.2732,6.70071,,43690,0.0,1014.628,0.0,3.646,1012.827,0,,4.068,134.6353,,,1.80078
2017-05-02T05:57:50Z,13.12242,3.966122,0.0,94.9153,0,1156,3.234,6.786564,,43690,0.0,1014.628,0.0,5.606,1012.827,0,,3.966,121.8072,,,1.80078
2017-05-02T06:12:52Z,13.12242,3.966122,0.0,95.01699,0,1156,4.7236,6.852085,,43690,0.0,1012.838,0.0,7.82,1011.038,0,,4.034,151.5309,,,1.80078
2017-05-02T06:27:49Z,13.12242,3.932224,0.0,95.11868,0,1156,2.8616,6.917598,,43690,0.0,1012.838,0.0,4.371,1011.038,0,,4.068,109.1475,,,1.80078
2017-05-02T06:42:52Z,13.12242,4.033916,0.0,95.22038,0,1156,4.4884,6.917598,,43690,0.0,1012.838,0.0,6.507,1011.038,0,,4.068,121.9756,,,1.80078
2017-05-02T06:57:55Z,13.12794,4.067818,0.0,95.28818,0,1156,4.7236,6.917598,,43690,0.0,1012.838,0.0,7.154,1011.038,0,,4.136,110.1102,,,1.80078
2017-05-02T07:12:53Z,13.12794,4.067818,0.0,95.32207,0,1156,6.9384,6.940197,,43690,0.0,1011.699,0.0,7.134,1009.898,0,,4.136,131.9638,,,1.80078
2017-05-02T07:27:55Z,13.12242,4.16951,0.0,95.32207,0,1156,5.1352,7.00571,,43690,0.0,1011.699,0.0,6.076,1009.898,0,,4.237,118.4136,,,1.80078
2017-05-02T07:42:56Z,13.1169,4.237308,0.0,95.32207,0,1156,4.4688,7.048642,,43690,0.0,1011.699,0.0,8.17,1009.898,0,,4.237,114.9238,,,1.80078
2017-05-02T07:57:52Z,13.11138,4.271206,0.0,95.38987,0,1156,4.9588,7.114155,,43690,0.0,1011.699,0.0,6.664,1009.898,0,,4.407,117.2102,,,1.80078
2017-05-02T08:12:53Z,13.10586,4.339004,0.0,95.42378,0,1156,1.3916,7.202266,,43690,0.0,1010.398,0.0,3.097,1008.597,0,,4.441,194.2994,,,1.80078
2017-05-02T08:27:53Z,13.11138,4.440697,0.0,95.42378,0,1156,5.782,7.267788,,43690,0.0,1010.398,0.0,7.742001,1008.597,0,,4.475,112.9743,,,1.80078
2017-05-02T08:42:56Z,13.11138,4.57629,0.0,95.52546,0,1156,4.9,7.310711,,43690,0.0,1010.398,0.0,9.0,1008.597,0,,4.61,101.1811,,,1.80078
2017-05-02T08:57:58Z,13.10034,4.711884,0.0,95.45767,0,1156,4.7628,7.421414,,43690,0.0,1010.398,0.0,6.997,1008.597,0,,4.746,135.6462,,,1.80078
2017-05-02T09:12:55Z,13.10034,4.915276,0.0009645138,95.42378,0,1156,4.606,7.532116,,43690,0.06751597,1009.421,4.822569e-06,8.58,1007.621,0,,4.915,102.3604,,,1.80078
2017-05-02T09:27:59Z,13.10034,5.084766,0.001929028,95.38987,0,1156,2.2148,7.685749,,43690,0.1350319,1009.421,9.645138e-06,3.097,1007.621,0,,5.085,148.4984,,,1.80078
2017-05-02T09:42:56Z,13.10586,5.084766,0.003858056,95.25428,0,1156,4.41,7.751262,,43690,0.2700639,1009.421,1.929028e-05,5.606,1007.621,0,,5.085,146.1638,,,1.80078
2017-05-02T09:57:59Z,13.11138,5.016968,0.002893541,95.28818,0,1156,0.7644,7.773854,,43690,0.2025479,1009.421,1.446771e-05,4.645,1007.621,0,,5.017,72.27562,,,1.80078
2017-05-02T10:12:57Z,13.12794,4.98307,0.01012706,95.32207,0,1156,6.7228,7.751262,,43690,0.7088939,1009.177,5.063528e-05,6.723001,1007.377,0,,5.051,119.4726,,,1.80078
2017-05-02T10:28:00Z,13.13346,5.050869,0.00916287,95.45767,0,1156,7.859599,7.685749,,43690,0.6414009,1009.177,4.581435e-05,7.389001,1007.377,0,,5.085,117.0658,,,1.80078
2017-05-02T10:42:58Z,13.13346,5.016968,0.008198252,95.59326,0,1156,4.6844,7.61797,,43690,0.5738776,1009.177,4.099126e-05,5.782,1007.377,0,,5.085,141.8075,,,1.80078
2017-05-02T10:58:02Z,13.12794,4.98307,0.01494996,95.72886,0,1156,5.096,7.685749,,43690,1.046497,1009.177,7.474978e-05,6.938,1007.377,0,,4.983,154.9485,,,1.80078
2017-05-02T11:12:59Z,13.10034,5.050869,0.01977252,95.93224,0,1156,5.1156,7.816784,,43690,1.384077,1007.794,9.886262e-05,7.860001,1005.993,0,,5.085,89.50816,,,1.80078
2017-05-02T11:28:03Z,13.10034,5.084766,0.02459509,96.10174,0,1156,5.6056,7.927486,,43690,1.721656,1007.794,0.0001229755,8.269999,1005.993,0,,5.153,114.2739,,,1.80078
2017-05-02T11:43:01Z,13.09482,5.186462,0.02073589,96.16954,0,1156,3.9396,8.015598,,43690,1.451512,1007.794,0.0001036794,6.958,1005.993,0,,5.22,136.0312,,,1.80078
2017-05-02T11:58:05Z,13.10034,5.321861,0.03037766,96.27082,0,1156,6.0564,8.081112,,43690,2.126436,1007.794,0.0001518883,7.428001,1005.993,0,,5.356,145.6096,,,1.80078
2017-05-02T12:13:03Z,13.10016,5.217297,0.02459156,96.29861,0,1156,6.8208,8.126301,,43690,1.721409,1007.467,0.0001229578,8.62,1005.666,0,,5.286,105.0729,,,1.80078
2017-05-02T12:28:02Z,13.10028,5.250412,0.02266303,96.43253,0,1156,6.468,8.191822,,43690,1.586412,1007.467,0.0001133151,8.57,1005.666,0,,5.387,117.6334,,,1.80078
2017-05-02T12:43:07Z,13.09386,5.456783,0.02603762,96.50668,0,1156,6.174,8.234745,,43690,1.822633,1007.467,0.0001301881,6.409,1005.666,0,,5.49,115.6195,,,1.80078
2017-05-02T12:58:04Z,13.09321,5.555477,0.03905622,96.56812,0,1156,4.606,8.302525,,43690,2.733935,1007.467,0.0001952811,7.076,1005.666,0,,5.657,129.185,,,1.80078
2017-05-02T13:13:08Z,13.09367,5.689316,0.04050274,96.63222,0,1156,2.646,8.390629,,43690,2.835192,1006.761,0.0002025137,5.606,1004.961,0,,5.758,123.3083,,,1.80078
2017-05-02T13:28:07Z,13.08736,5.755238,0.06220065,96.59439,0,1156,4.116,8.52393,,43690,4.354045,1006.761,0.0003110032,5.233,1004.961,0,,5.857,110.5013,,,1.80078
2017-05-02T13:43:07Z,13.09261,5.585503,0.03423447,96.66161,0,1156,3.5084,8.566853,,43690,2.396413,1006.761,0.0001711723,7.742001,1004.961,0,,5.586,124.8426,,,1.80078
2017-05-02T13:58:05Z,13.09812,5.551613,0.07570157,96.66161,0,1156,4.8412,8.566853,,43690,5.29911,1006.761,0.0003785078,6.076,1004.961,0,,5.687,123.9763,,,1.80078
2017-05-02T14:13:09Z,13.0926,5.95792,0.1354913,96.72854,0,1156,4.6256,8.612042,,43690,9.484393,1006.0,0.0006774566,7.389001,1004.199,0,,5.924,115.5289,,,1.80078
2017-05-02T14:28:07Z,13.0926,6.093872,0.0650937,96.79714,0,1156,6.3308,8.767926,,43690,4.556559,1006.0,0.0003254685,7.232,1004.199,0,,6.162,124.6741,,,1.80078
2017-05-02T14:43:11Z,13.09255,5.922524,0.09547076,96.82704,0,1156,5.4096,8.833446,,43690,6.682953,1006.0,0.0004773538,7.154,1004.199,0,,6.024,103.6863,,,1.80078